SCP
0 0 0 0 0 0 0 0 0 0 0 0 0 0 0 0 0 0 0 0 0 0 0 0 0 0 0 0 0 0 0 0 0 0 0 0 0 0 0 0 0 0 0
0 0 0 0 0 0 0 0 0 0 0 0 0 0 0 0 0 0 0 0 0 0 0 0 0 0 0 0 0 0 0 0 0 0 0 0 0 0 0 0 0 0 0
0 0 0 0 0 0 0 0 0 0 0 0 0 0 0 0 0 0 0 0 0 0 0 0 0 0 0 0 0 0 0 0 0 0 0 0 0 1 0 0 0 0 0
0 0 0 0 0 0 0 0 0 0 0 0 0 0 0 0 0 0 0 0 0 0 0 0 0 0 0 0 0 0 0 0 0 0 0 0 1 1 0 0 0 0 0
0 0 0 0 0 0 0 0 0 0 0 0 0 0 0 0 0 0 0 0 0 0 0 0 0 0 0 0 0 0 0 0 0 0 0 0 1 1 1 1 0 0 0
0 0 0 0 0 0 0 0 0 0 0 0 0 0 0 0 0 0 0 0 0 0 0 0 0 0 0 0 0 0 0 0 0 0 0 0 1 1 1 1 0 0 0
0 0 0 0 0 0 0 0 0 0 0 0 0 0 0 0 0 0 0 0 0 0 0 0 0 0 0 0 0 0 0 0 0 0 0 0 1 1 1 1 1 0 0
0 0 0 0 0 0 0 0 0 0 0 0 0 0 0 0 0 0 0 0 0 0 0 0 0 0 0 0 0 0 0 0 0 0 0 0 0 1 1 1 1 0 0
0 0 0 0 0 0 0 0 0 0 0 0 0 0 0 0 0 0 0 0 0 0 0 0 0 0 0 0 0 0 0 0 0 0 0 0 0 0 1 1 1 0 0
0 0 0 0 0 0 0 0 0 0 0 0 0 0 0 0 0 0 0 0 0 0 0 0 0 0 0 0 0 0 0 0 0 0 0 0 0 0 0 1 1 1 0
0 0 0 0 0 0 0 0 0 0 0 0 0 0 0 0 0 0 0 0 0 0 0 0 0 0 0 0 0 0 0 0 0 0 0 0 0 0 0 1 1 1 1
0 0 0 0 0 0 0 0 0 0 0 0 0 0 0 0 0 0 0 0 0 0 0 0 0 0 0 0 0 0 0 0 0 0 0 0 0 0 0 1 1 1 1
0 0 0 0 0 0 0 0 0 0 0 0 0 0 0 0 0 0 0 0 0 0 0 0 0 0 0 0 0 0 0 0 0 0 0 0 0 0 0 0 1 1 1
0 0 0 0 0 0 0 0 0 0 0 0 0 0 0 0 0 0 0 0 0 0 0 0 0 0 0 0 0 0 0 0 0 0 0 0 0 0 0 1 1 1 1
0 0 0 0 0 0 0 0 0 0 0 0 0 0 0 0 0 0 0 0 0 0 0 0 0 0 0 0 0 0 0 0 0 0 0 0 0 0 0 1 1 1 1
0 0 0 0 0 0 0 0 0 0 0 0 0 0 0 0 0 0 0 0 0 0 0 0 0 0 0 0 0 0 0 0 0 0 0 0 0 0 0 1 1 1 1
0 0 0 0 0 0 0 0 0 0 0 0 0 0 0 0 0 0 0 0 0 0 0 0 0 0 0 0 0 0 0 0 0 0 0 0 0 0 0 1 1 1 1
0 0 0 0 0 0 0 0 0 0 0 0 0 0 0 0 0 0 0 0 0 0 0 0 0 0 0 0 0 0 0 0 0 0 0 0 0 0 0 0 0 0 0
0 0 0 0 0 0 0 0 0 0 0 0 0 0 0 0 0 0 0 0 0 0 0 0 0 0 0 0 0 0 0 0 0 0 0 0 0 0 0 0 0 0 0
0 0 0 0 0 0 0 0 0 0 0 0 0 0 0 0 0 0 0 0 0 0 0 0 0 0 0 0 0 0 0 0 0 0 0 0 0 0 0 0 0 0 0
0 0 0 0 0 0 0 0 0 0 0 0 0 0 0 0 0 0 0 0 0 0 0 0 0 0 0 0 0 0 0 0 0 0 0 0 0 0 0 0 0 0 0
0 0 0 0 0 0 0 0 0 0 0 0 0 0 0 0 0 0 0 0 0 0 0 0 0 0 0 0 0 0 0 0 0 0 0 0 0 0 0 0 0 0 0
0 0 0 0 0 0 0 0 0 0 0 0 0 0 0 0 0 0 0 0 0 0 0 0 0 0 0 0 0 0 0 0 0 0 0 0 0 0 0 0 0 0 0
0 0 0 0 0 0 0 0 0 0 0 0 0 0 0 0 0 0 0 0 0 0 0 0 0 0 0 0 0 0 0 0 0 0 0 0 0 0 0 0 0 0 0
0 0 0 0 0 0 0 0 0 0 0 0 0 0 0 0 0 0 0 0 0 0 0 0 0 0 0 0 0 0 0 0 0 0 0 0 0 0 0 0 0 0 0
0 0 0 0 0 0 0 0 0 0 0 0 0 0 0 0 0 0 0 0 0 0 0 0 0 0 0 0 0 0 0 0 0 0 0 0 0 0 0 0 0 0 0
Wind_Speed
4 4 4 5 5 5 5 6 6 6 6 7 7 7 7 7 7 6 7 7 7 7 6 7 7 6 5 4 4 4 4 4 6 4 2 2 1 0 1 2 2 3 3
4 4 5 5 5 5 6 7 6 7 7 7 7 8 8 8 7 7 8 8 8 8 8 8 8 6 7 5 5 6 5 5 5 5 3 2 2 1 1 3 2 3 3
4 5 5 6 6 6 7 7 7 7 8 8 7 8 9 9 8 8 8 9 9 9 9 9 9 8 8 6 6 6 5 5 5 5 4 2 2 2 2 3 4 4 4
4 5 6 7 6 7 7 7 8 7 8 8 8 9 9 9 9 9 9 9 9 9 9 9 9 9 9 9 7 8 7 6 5 5 4 3 2 2 3 3 4 3 4
5 6 7 7 6 7 7 8 8 8 9 8 8 9 9 8 8 9 9 9 9 9 9 9 10 12 13 10 8 8 8 6 6 5 5 4 3 4 4 3 4 5 4
5 7 7 6 7 7 8 8 8 9 9 8 9 9 9 8 10 13 11 9 9 9 10 9 10 12 14 15 16 14 12 9 8 6 5 5 5 4 4 5 5 6 4
6 7 7 7 7 8 8 8 9 9 8 9 9 9 10 11 14 15 15 10 10 10 10 9 9 9 11 10 12 15 15 16 13 8 7 7 6 6 7 7 6 5 4
6 7 7 7 8 8 8 9 9 8 8 8 9 9 9 11 13 13 14 11 9 10 11 11 11 11 10 9 9 10 10 11 13 10 8 7 7 6 7 6 6 5 5
7 7 7 7 8 9 9 9 8 8 9 8 8 9 9 11 12 12 11 7 8 10 10 10 11 12 13 13 10 10 9 9 10 11 10 9 9 10 8 6 7 7 5
7 7 7 7 8 9 10 9 8 7 9 9 9 9 9 10 11 12 10 5 7 8 8 9 13 13 13 13 11 10 10 9 7 8 8 8 8 9 12 9 8 8 6
6 7 7 7 8 9 8 7 8 8 8 8 9 9 8 9 10 11 9 5 6 7 7 7 7 11 14 14 12 10 11 8 7 7 6 6 6 6 8 8 7 7 6
6 7 8 8 7 7 7 8 7 7 7 8 8 8 6 6 7 8 9 8 8 7 7 6 6 10 12 13 11 10 11 9 5 6 6 6 6 6 6 7 8 6 4
5 7 7 8 7 7 7 8 7 6 5 6 6 7 7 5 5 8 9 9 9 6 6 8 8 10 9 9 11 12 10 7 6 6 7 7 6 6 6 6 7 6 5
6 7 7 7 8 7 6 5 6 6 6 6 6 7 7 6 5 4 4 4 6 5 4 5 6 6 6 5 5 7 7 7 7 7 6 5 4 4 5 6 6 6 5
6 6 7 6 6 7 7 6 6 7 6 7 7 6 7 7 6 6 5 5 4 4 4 2 2 2 3 3 4 4 5 6 6 5 5 5 5 5 5 5 5 6 5
5 6 5 5 6 6 6 8 8 8 10 10 11 10 7 9 10 9 8 7 7 6 3 2 2 2 3 4 4 5 5 6 6 6 5 5 5 6 6 5 5 6 6
6 6 5 5 6 6 6 6 8 9 8 8 8 9 9 10 10 9 8 6 6 4 3 3 3 3 3 3 4 4 5 5 5 6 6 6 5 5 5 6 6 7 7
6 7 6 5 5 6 6 6 6 7 8 7 7 7 8 8 8 7 5 4 3 2 3 3 3 3 3 3 4 4 4 4 4 5 6 6 6 5 5 6 6 8 7
5 5 5 5 5 5 5 5 5 6 6 7 6 6 5 5 5 5 4 3 3 4 3 4 4 3 3 3 4 4 4 4 5 5 5 6 6 5 5 5 6 8 7
5 8 7 5 5 5 5 5 5 5 6 6 6 5 3 3 3 3 3 3 4 4 4 4 4 4 3 3 4 4 4 5 5 5 5 5 6 6 6 6 6 7 7
4 6 8 6 5 5 5 5 5 5 5 6 6 6 5 4 4 5 4 4 4 4 4 4 4 4 3 3 3 5 6 5 5 5 5 6 6 6 5 5 6 6 7
4 4 4 5 5 5 5 4 4 5 6 7 6 6 6 3 3 4 4 4 4 4 4 4 4 3 3 4 4 4 5 5 5 6 6 6 6 6 6 6 6 6 7
4 5 5 5 4 5 5 4 4 4 5 5 5 5 4 3 3 3 4 4 3 3 3 3 3 3 3 3 4 4 5 5 5 6 6 6 6 6 6 7 8 8 8
4 4 5 5 4 4 4 4 4 4 5 5 5 5 5 4 4 4 4 3 3 2 2 2 2 3 3 3 3 3 4 4 4 5 8 7 7 7 7 7 8 10 9
4 4 4 4 4 4 3 4 4 4 4 4 5 5 5 5 4 4 3 3 2 2 2 2 1 2 2 2 2 2 3 4 4 4 6 6 8 8 8 9 8 9 9
4 4 3 3 3 3 3 3 3 4 4 4 4 5 5 5 4 4 3 3 3 2 2 2 2 2 1 1 1 1 2 3 5 5 5 6 7 7 8 7 10 9 10
Wind_Direction
275 277 281 281 282 281 275 274 275 277 277 275 274 274 272 268 264 256 254 255 253 256 254 247 249 245 243 243 238 240 240 238 256 270 265 286 285 217 101 101 111 124 139
273 280 279 281 286 284 280 278 277 277 277 274 273 274 272 269 261 255 257 257 250 253 253 248 251 247 239 239 236 238 239 237 245 260 262 261 260 208 143 121 111 105 109
279 284 287 287 285 282 281 281 280 278 279 278 272 269 269 268 265 260 254 255 252 251 250 247 248 244 242 237 233 235 236 239 238 250 257 248 240 191 146 124 116 107 101
282 284 283 282 280 280 282 282 280 278 278 276 273 268 266 266 265 264 260 256 254 253 250 247 246 241 240 238 234 233 232 232 233 242 243 241 229 185 164 157 143 125 115
283 282 278 281 283 284 284 284 284 282 281 276 277 275 270 266 261 257 255 256 254 255 254 249 246 243 240 236 230 226 223 223 224 230 233 227 210 190 184 166 155 136 114
279 279 283 287 288 286 286 287 287 286 285 282 278 277 275 270 267 264 263 260 256 254 255 253 250 253 251 245 237 230 218 216 218 219 226 225 212 197 182 167 156 157 152
278 281 285 286 287 287 290 292 289 287 285 285 283 279 275 273 270 270 270 265 256 253 251 251 252 248 238 239 241 238 231 224 215 211 218 222 213 197 184 178 174 167 149
281 283 285 286 287 290 291 289 287 285 285 284 283 281 278 277 275 273 273 270 260 255 251 246 245 247 242 232 236 237 234 230 223 220 221 223 217 202 190 182 163 138 116
279 280 282 284 288 292 293 291 289 289 290 287 283 282 280 281 277 275 274 269 261 259 256 249 242 242 238 228 229 235 236 236 231 222 219 223 213 200 182 167 163 159 155
273 276 280 282 283 287 287 287 288 287 287 289 287 284 279 279 280 280 279 266 263 263 261 254 244 238 235 225 224 226 229 229 220 213 214 220 213 199 188 185 179 174 159
272 278 282 283 282 282 282 284 289 291 292 291 291 290 285 279 283 283 282 265 260 264 263 258 248 235 232 228 221 222 223 215 209 205 202 203 206 198 194 195 188 180 173
274 279 284 287 287 289 288 292 292 291 295 296 296 297 291 284 281 285 286 277 265 261 262 258 250 241 236 232 224 223 218 208 202 198 195 196 204 201 196 194 192 190 184
277 281 287 293 291 286 286 293 298 295 293 295 294 295 297 295 288 285 289 291 288 270 266 262 253 247 241 234 227 217 207 201 195 197 199 201 203 200 188 185 184 178 162
275 284 291 296 300 300 293 286 289 292 295 296 294 293 295 295 292 300 301 301 300 292 283 282 271 253 234 225 215 208 203 198 195 201 201 198 187 185 189 182 178 171 162
274 284 291 290 292 300 300 287 281 273 264 274 283 281 287 292 290 294 296 294 294 291 297 281 262 237 212 206 200 194 190 190 196 197 190 186 182 182 188 185 177 170 170
274 285 288 293 296 298 303 307 288 274 280 270 258 258 266 261 279 291 295 295 288 279 265 260 256 236 221 209 201 197 193 193 193 189 187 188 185 184 184 185 181 179 175
258 275 284 288 293 299 302 303 310 314 308 296 284 278 265 271 275 281 287 294 290 264 240 249 248 237 227 213 205 202 198 194 189 187 188 191 187 182 180 186 188 183 178
260 272 278 280 286 290 293 293 293 302 312 313 305 294 290 286 280 276 282 290 279 245 242 247 242 231 223 214 204 202 196 184 186 189 188 187 185 182 182 185 191 186 175
265 273 279 282 283 284 287 291 293 296 298 301 306 306 302 302 292 272 258 245 262 266 255 251 246 237 227 218 208 201 197 194 191 187 188 185 186 186 188 190 189 178 170
265 279 287 286 289 293 296 300 304 305 304 305 306 305 307 305 299 289 256 250 254 259 258 254 249 241 229 217 211 204 201 198 193 190 187 185 187 189 190 190 186 179 178
264 283 293 292 286 288 294 299 301 301 302 303 301 296 289 280 282 286 281 268 257 255 251 250 247 242 230 217 211 206 201 197 193 190 186 185 186 188 187 188 187 180 175
255 271 279 284 288 291 294 295 298 300 302 306 307 311 307 286 282 285 285 281 270 257 248 245 248 238 223 211 206 201 199 194 193 189 185 184 185 186 183 182 182 179 174
248 268 278 282 285 293 298 300 303 306 309 311 313 315 318 312 303 295 292 293 285 275 261 244 248 248 229 213 208 205 204 201 194 186 181 183 185 186 182 182 180 176 176
242 260 273 285 292 298 304 307 308 312 316 320 322 320 320 317 309 304 304 306 302 294 283 261 253 251 246 228 205 204 209 205 192 193 191 186 185 184 182 183 181 181 179
234 250 264 278 289 297 304 307 312 319 323 326 326 323 323 324 322 319 321 320 316 315 318 305 285 275 266 256 239 223 208 200 199 193 190 188 186 184 182 183 181 178 174
229 243 257 270 281 292 299 305 313 323 329 331 329 328 328 331 333 336 338 340 342 341 340 336 333 329 321 293 245 237 204 194 196 197 193 185 184 184 182 181 181 179 176